Change the Weather History Date:

Saturday, March 16, 2013

  Actual Average (KEYE) Record (KEYE)
Temperature  
Mean Temperature 38 °F 42 °F  
Max Temperature 43 °F 52 °F 77 °F (2012)
Min Temperature 32 °F 33 °F 19 °F (1997)
Degree Days  
Heating Degree Days 27 22  
Month to date heating degree days 406  
Since 1 July heating degree days 4531  
Cooling Degree Days 0 0  
Month to date cooling degree days 0  
Year to date cooling degree days 0  
Moisture  
Dew Point 34 °F    
Average Humidity 82    
Maximum Humidity 89    
Minimum Humidity 74    
Precipitation  
Precipitation 0.00 in 0.12 in 0.44 in (2001)
Month to date precipitation 1.33  
Year to date precipitation 5.67  
Sea Level Pressure  
Sea Level Pressure 29.81 in    
Wind  
Wind Speed 7 mph (NNW)    
Max Wind Speed 17 mph    
Max Gust Speed 21 mph    
Visibility 7 miles    
Events Fog , Rain , Thunderstorm    
T = Trace of Precipitation, MM = Missing Value Source: NWS Daily Summary

Daily Weather History Graph

Daily Weather History Graph

Search for Another Location

Airport or City:

Trip Planner

Search our weather history database for the weather conditions in past years. The results will help you decide how hot, cold, wet, or windy it might be!

Date:

Astronomy

Mar. 16, 2013 Rise Set
Actual Time 7:54 AM EDT 7:53 PM EDT
Civil Twilight 7:27 AM EDT 8:20 PM EDT
Nautical Twilight 6:56 AM EDT 8:51 PM EDT
Astronomical Twilight 6:24 AM EDT 9:23 PM EDT
Moon 10:23 AM EDT (3/16) 12:05 AM EDT (3/16)
Length of Visible Light 12h 52m
Length of Day
11h 58m
Waxing Crescent, 23% of the Moon is Illuminated
Mar 16
Waxing Crescent
Mar 19
First Quarter
Mar 27
Full
Apr 3
Last Quarter
Apr 10
New

Hourly Weather History & Observations

Time (EDT) Temp. Windchill Dew Point Humidity Pressure Visibility Wind Dir Wind Speed Gust Speed Precip Events Conditions
12:15 AM 44.6 °F 40.7 °F 36.9 °F 74% 29.74 in 10.0 mi East 6.9 mph - N/A Rain Light Rain
12:35 AM 43.9 °F 39.9 °F 36.9 °F 76% 29.73 in 10.0 mi ESE 6.9 mph - N/A Thunderstorm Thunderstorm
12:55 AM 43.3 °F 39.2 °F 36.7 °F 77% 29.71 in 10.0 mi ESE 6.9 mph - N/A   Scattered Clouds
1:15 AM 43.7 °F 39.7 °F 36.5 °F 76% 29.69 in 10.0 mi SE 6.9 mph - N/A   Scattered Clouds
1:35 AM 43.0 °F 38.8 °F 36.5 °F 78% 29.68 in 10.0 mi SSE 6.9 mph - N/A   Clear
1:55 AM 43.3 °F 39.9 °F 36.9 °F 78% 29.67 in 10.0 mi SSE 5.8 mph - N/A   Clear
2:15 AM 43.7 °F 39.7 °F 36.9 °F 77% 29.66 in 10.0 mi SSE 6.9 mph - N/A   Scattered Clouds
2:35 AM 43.7 °F - 37.0 °F 77% 29.66 in 10.0 mi Calm Calm - N/A   Scattered Clouds
2:55 AM 43.2 °F 41.5 °F 36.9 °F 78% 29.66 in 10.0 mi East 3.5 mph - N/A   Clear
3:15 AM 43.2 °F 41.5 °F 36.9 °F 78% 29.66 in 10.0 mi SE 3.5 mph - N/A   Clear
3:35 AM 42.1 °F 39.2 °F 36.5 °F 81% 29.65 in 10.0 mi South 4.6 mph - N/A   Scattered Clouds
3:55 AM 41.5 °F 39.6 °F 36.5 °F 82% 29.64 in 10.0 mi SSE 3.5 mph - N/A   Scattered Clouds
4:15 AM 42.3 °F 39.4 °F 36.9 °F 81% 29.63 in 10.0 mi South 4.6 mph - N/A   Clear
4:35 AM 41.9 °F - 36.7 °F 82% 29.62 in 10.0 mi Calm Calm - N/A   Clear
4:55 AM 41.2 °F 39.2 °F 36.1 °F 82% 29.61 in 7.0 mi South 3.5 mph - N/A   Clear
5:15 AM 40.6 °F 36.7 °F 36.0 °F 83% 29.61 in 7.0 mi South 5.8 mph - N/A   Clear
5:35 AM 41.0 °F - 36.3 °F 83% 29.61 in 7.0 mi Calm Calm - N/A Thunderstorm Thunderstorm
5:55 AM 41.2 °F 39.2 °F 36.7 °F 84% 29.61 in 7.0 mi South 3.5 mph - N/A Thunderstorm Thunderstorm
6:35 AM 41.2 °F - 37.2 °F 86% 29.62 in 7.0 mi Calm Calm - N/A Thunderstorm Scattered Clouds
6:55 AM 39.6 °F - 35.6 °F 86% 29.62 in 7.0 mi Calm Calm - N/A   Scattered Clouds
7:15 AM 37.9 °F - 34.0 °F 86% 29.62 in 7.0 mi Calm Calm - N/A   Clear
7:35 AM 35.8 °F 33.0 °F 32.2 °F 87% 29.63 in 3.0 mi NNW 3.5 mph - N/A   Clear
7:55 AM 36.3 °F 30.1 °F 33.1 °F 88% 29.64 in 3.0 mi NNW 8.1 mph - N/A   Clear
8:15 AM 38.1 °F 33.7 °F 34.9 °F 88% 29.65 in 3.0 mi NNW 5.8 mph - N/A   Clear
8:35 AM 38.5 °F - 35.2 °F 88% 29.65 in 4.0 mi Calm Calm - N/A   Clear
8:55 AM 39.2 °F 35.0 °F 36.0 °F 88% 29.66 in 3.0 mi NNW 5.8 mph - N/A   Clear
9:15 AM 40.1 °F 34.7 °F 36.7 °F 88% 29.67 in 4.0 mi NNW 8.1 mph - N/A   Clear
9:35 AM 41.0 °F 35.2 °F 37.0 °F 86% 29.68 in 4.0 mi NNW 9.2 mph - N/A   Clear
9:55 AM 42.1 °F 37.1 °F 37.9 °F 85% 29.69 in 4.0 mi NNW 8.1 mph - N/A   Clear
10:15 AM 43.0 °F 36.8 °F 38.5 °F 84% 29.71 in 4.0 mi North 11.5 mph - N/A   Clear
10:35 AM 41.2 °F 34.1 °F 37.0 °F 85% 29.72 in 1.2 mi North 12.7 mph 18.4 mph N/A   Mostly Cloudy
10:55 AM 39.9 °F 31.1 °F 36.3 °F 87% 29.74 in 0.2 mi NNW 17.3 mph - N/A Fog Fog
11:15 AM 40.1 °F 32.7 °F 36.7 °F 88% 29.75 in 0.2 mi NNW 12.7 mph 17.3 mph N/A Fog Fog
11:35 AM 40.6 °F 33.4 °F 37.6 °F 89% 29.76 in 0.5 mi NW 12.7 mph 20.7 mph N/A Fog Fog
11:55 AM 41.0 °F 33.9 °F 37.8 °F 88% 29.78 in 1.0 mi NW 12.7 mph - N/A   Overcast
12:15 PM 41.7 °F 35.6 °F 38.7 °F 89% 29.79 in 1.8 mi NW 10.4 mph - N/A   Overcast
12:35 PM 42.3 °F 36.8 °F 38.8 °F 88% 29.81 in 2.0 mi NW 9.2 mph - N/A   Overcast
12:55 PM 43.2 °F 36.2 °F 39.0 °F 85% 29.82 in 2.5 mi NNW 13.8 mph - N/A   Overcast
1:15 PM 42.8 °F 36.6 °F 38.3 °F 84% 29.83 in 2.0 mi NNW 11.5 mph - N/A   Haze
1:35 PM 42.3 °F 35.5 °F 37.8 °F 84% 29.85 in 2.0 mi NNW 12.7 mph - N/A   Overcast
1:55 PM 41.5 °F 33.8 °F 37.2 °F 85% 29.86 in 2.0 mi NW 15.0 mph 20.7 mph N/A   Haze
2:15 PM 41.0 °F 33.5 °F 36.5 °F 84% 29.87 in 2.0 mi NW 13.8 mph 19.6 mph N/A   Overcast
2:35 PM 41.0 °F 33.9 °F 36.1 °F 83% 29.88 in 2.5 mi NW 12.7 mph - N/A   Haze
2:55 PM 39.6 °F 31.3 °F 34.9 °F 83% 29.89 in 4.0 mi NNW 15.0 mph 20.7 mph N/A   Haze
3:15 PM 39.4 °F 31.1 °F 34.5 °F 83% 29.89 in 5.0 mi NNW 15.0 mph 18.4 mph N/A   Overcast
3:35 PM 38.5 °F 30.3 °F 33.8 °F 83% 29.89 in 5.0 mi NNW 13.8 mph 17.3 mph N/A   Haze
3:55 PM 38.7 °F 30.5 °F 33.3 °F 81% 29.90 in 7.0 mi NNW 13.8 mph 18.4 mph N/A   Overcast
4:15 PM 38.8 °F 30.0 °F 32.9 °F 79% 29.91 in 10.0 mi North 16.1 mph - N/A   Overcast
4:35 PM 38.7 °F 31.4 °F 32.4 °F 78% 29.92 in 10.0 mi NNW 11.5 mph 16.1 mph N/A   Overcast
4:55 PM 38.8 °F 31.2 °F 32.2 °F 77% 29.93 in 10.0 mi NW 12.7 mph 18.4 mph N/A   Overcast
5:15 PM 38.1 °F 30.2 °F 32.0 °F 79% 29.95 in 10.0 mi NNW 12.7 mph - N/A   Overcast
5:35 PM 38.1 °F 31.7 °F 31.3 °F 76% 29.96 in 10.0 mi North 9.2 mph - N/A   Overcast
5:55 PM 38.1 °F 31.2 °F 31.1 °F 76% 29.95 in 10.0 mi NNW 10.4 mph - N/A   Overcast
6:15 PM 37.8 °F 29.8 °F 30.9 °F 76% 29.97 in 10.0 mi NNW 12.7 mph - N/A   Overcast
6:35 PM 37.4 °F 30.8 °F 30.7 °F 77% 29.97 in 10.0 mi NNW 9.2 mph - N/A   Overcast
6:55 PM 36.7 °F 29.9 °F 30.4 °F 78% 29.98 in 10.0 mi NNW 9.2 mph - N/A   Overcast
7:15 PM 36.5 °F 30.3 °F 30.2 °F 78% 29.98 in 10.0 mi NNW 8.1 mph - N/A   Overcast
7:35 PM 36.1 °F 29.9 °F 29.1 °F 76% 29.97 in 10.0 mi North 8.1 mph - N/A   Overcast
7:55 PM 35.8 °F 28.8 °F 29.1 °F 77% 29.98 in 10.0 mi North 9.2 mph - N/A   Overcast
8:15 PM 35.6 °F 29.2 °F 28.9 °F 77% 29.97 in 10.0 mi North 8.1 mph - N/A   Overcast
8:35 PM 35.4 °F 28.4 °F 28.9 °F 77% 29.97 in 10.0 mi North 9.2 mph - N/A   Overcast
8:55 PM 35.4 °F 28.4 °F 28.9 °F 77% 29.99 in 10.0 mi NNW 9.2 mph - N/A   Overcast
9:15 PM 35.1 °F 28.6 °F 28.6 °F 77% 30.01 in 10.0 mi NNW 8.1 mph - N/A   Overcast
9:35 PM 35.1 °F 28.6 °F 28.8 °F 78% 30.03 in 10.0 mi NNW 8.1 mph - N/A   Overcast
9:55 PM 34.9 °F 28.3 °F 28.4 °F 77% 30.04 in 10.0 mi NNW 8.1 mph - N/A   Overcast
10:15 PM 34.3 °F 26.5 °F 28.4 °F 79% 30.05 in 10.0 mi NNW 10.4 mph - N/A   Overcast
10:35 PM 33.8 °F 27.7 °F 28.4 °F 81% 30.06 in 10.0 mi NNW 6.9 mph - N/A   Overcast
10:55 PM 33.1 °F 24.9 °F 27.9 °F 81% 30.06 in 10.0 mi NNW 10.4 mph - N/A   Overcast
11:15 PM 32.9 °F 24.7 °F 27.5 °F 81% 30.06 in 10.0 mi NNW 10.4 mph - N/A   Overcast
11:35 PM 32.5 °F 25.5 °F 27.3 °F 81% 30.06 in 10.0 mi North 8.1 mph - N/A   Overcast
11:55 PM 32.5 °F 24.2 °F 27.1 °F 80% 30.06 in 10.0 mi NNW 10.4 mph - N/A   Overcast